User: anonymous   Login
Location: Unspecified
(0.0000°N, 0.0000°E)
Time: 23:11:49
(UTC+00:00)
Language:

USA 245 - Orbit

View from above orbital plane
View from above orbital plane
View from above satellite
View from above satellite

Ground track
Ground track

The orbit data is extracted from the following two-line orbital elements,

1 39232U 13043A   17230.89161620 0.00010000  00000-0  10316-3 0    04
2 39232  97.8759 292.4612 0516087 155.7561 204.2438 14.80225547    00
Epoch (UTC): 18 August 2017 21:23:55
Eccentricity: 0.0516087
inclination: 97.8759°
perigee height: 267 km
apogee height: 990 km
right ascension of ascending node: 292.4612°
argument of perigee: 155.7561°
revolutions per day: 14.80225547
mean anomaly at epoch: 204.2438°
orbit number at epoch: 0

The dashed part of the orbit path shows where the satellite is in the earth's shadow,  

DLR